User: anonymous   Login
Location: Nashville
(36.1660°N, 86.7840°W)
Time: 21:53:46
(UTC-06:00)
Language:

A-11 Canister half - Orbit

View from above orbital plane
View from above orbital plane
View from above satellite
View from above satellite

Ground track
Ground track

The orbit data is extracted from the following two-line orbital elements,

1 00051U 60009C   22022.26500490 -.00000056  00000-0  28657-3 0  9998
2 00051  47.2149 341.2576 0105253  98.1155 263.1589 12.18273493735265
Epoch (UTC): 22 January 2022 06:21:36
Eccentricity: 0.0105253
inclination: 47.2149°
perigee height: 1516 km
apogee height: 1684 km
right ascension of ascending node: 341.2576°
argument of perigee: 98.1155°
revolutions per day: 12.18273493
mean anomaly at epoch: 263.1589°
orbit number at epoch: 73526

The dashed part of the orbit path shows where the satellite is in the earth's shadow,  

DLR